TimeCDT,TemperatureF,Dew PointF,Humidity,Sea Level PressureIn,VisibilityMPH,Wind Direction,Wind SpeedMPH,Gust SpeedMPH,PrecipitationIn,Events,Conditions,WindDirDegrees,DateUTC
12:56 AM,77.0,72.9,87,29.95,10.0,ENE,3.5,-,N/A,,Clear,60,2013-08-30 05:56:00
1:56 AM,75.9,72.9,90,29.95,10.0,Calm,Calm,-,N/A,,Clear,0,2013-08-30 06:56:00
2:56 AM,73.9,72.0,93,29.95,10.0,Calm,Calm,-,N/A,,Partly Cloudy,0,2013-08-30 07:56:00
3:56 AM,74.8,72.0,91,29.95,10.0,Calm,Calm,-,N/A,,Clear,0,2013-08-30 08:56:00
4:56 AM,72.0,70.9,96,29.96,10.0,Calm,Calm,-,N/A,,Clear,0,2013-08-30 09:56:00
5:56 AM,70.9,70.9,100,29.96,7.0,Calm,Calm,-,N/A,,Clear,0,2013-08-30 10:56:00
6:56 AM,72.9,72.0,97,29.97,6.0,Calm,Calm,-,N/A,,Clear,0,2013-08-30 11:56:00
7:56 AM,75.9,73.9,94,29.97,6.0,Calm,Calm,-,N/A,,Clear,0,2013-08-30 12:56:00
8:56 AM,79.9,74.8,85,29.97,6.0,Calm,Calm,-,N/A,,Haze,0,2013-08-30 13:56:00
9:56 AM,86.9,74.8,67,29.97,7.0,WNW,6.9,-,N/A,,Clear,300,2013-08-30 14:56:00
10:56 AM,88.9,77.0,68,29.96,8.0,Variable,4.6,-,N/A,,Clear,0,2013-08-30 15:56:00
11:56 AM,90.9,73.9,57,29.95,8.0,Variable,3.5,-,N/A,,Clear,0,2013-08-30 16:56:00
12:56 PM,92.8,72.9,52,29.93,8.0,WNW,8.1,-,N/A,,Scattered Clouds,290,2013-08-30 17:56:00
1:56 PM,93.9,70.0,46,29.92,10.0,WNW,9.2,-,N/A,,Scattered Clouds,300,2013-08-30 18:56:00
2:56 PM,95.9,68.9,41,29.89,10.0,WNW,9.2,-,N/A,,Partly Cloudy,290,2013-08-30 19:56:00
3:56 PM,95.0,68.0,41,29.88,10.0,WNW,9.2,-,N/A,,Partly Cloudy,290,2013-08-30 20:56:00
4:56 PM,95.0,68.9,42,29.87,10.0,WSW,9.2,-,N/A,,Partly Cloudy,250,2013-08-30 21:56:00
5:56 PM,92.8,68.9,45,29.86,10.0,WSW,5.8,-,N/A,,Partly Cloudy,250,2013-08-30 22:56:00
6:56 PM,88.0,73.9,63,29.86,10.0,West,5.8,-,N/A,,Scattered Clouds,270,2013-08-30 23:56:00
7:56 PM,83.8,73.9,72,29.87,10.0,SW,4.6,-,N/A,,Scattered Clouds,220,2013-08-31 00:56:00
8:56 PM,81.0,73.9,79,29.88,10.0,WSW,3.5,-,N/A,,Clear,240,2013-08-31 01:56:00
9:56 PM,81.0,73.9,79,29.87,10.0,WSW,5.8,-,N/A,,Clear,240,2013-08-31 02:56:00
10:56 PM,79.0,73.9,84,29.87,10.0,Calm,Calm,-,N/A,,Clear,0,2013-08-31 03:56:00
11:56 PM,77.0,73.9,90,29.86,10.0,Calm,Calm,-,N/A,,Clear,0,2013-08-31 04:56:00